TimeAKST,TemperatureF,Dew PointF,Humidity,Sea Level PressureIn,VisibilityMPH,Wind Direction,Wind SpeedMPH,Gust SpeedMPH,PrecipitationIn,Events,Conditions,WindDirDegrees,DateUTC
12:16 AM,3.2,-0.4,85,29.65,10.0,Calm,Calm,-,N/A,,Clear,0,2013-01-04 09:16:00
12:36 AM,3.2,-2.2,78,29.64,10.0,SSW,3.5,-,N/A,,Clear,210,2013-01-04 09:36:00
12:56 AM,3.2,1.4,92,29.64,10.0,SSW,5.8,-,N/A,,Clear,200,2013-01-04 09:56:00
1:16 AM,3.2,-0.4,85,29.63,10.0,Calm,Calm,-,N/A,,Clear,0,2013-01-04 10:16:00
1:36 AM,3.2,-0.4,85,29.64,10.0,Calm,Calm,-,N/A,,Clear,0,2013-01-04 10:36:00
1:56 AM,3.2,-0.4,85,29.64,10.0,SSW,4.6,-,N/A,,Clear,200,2013-01-04 10:56:00
2:16 AM,3.2,1.4,92,29.63,8.0,Calm,Calm,-,N/A,,Clear,0,2013-01-04 11:16:00
2:36 AM,1.4,-2.2,85,29.63,10.0,Calm,Calm,-,N/A,,Clear,0,2013-01-04 11:36:00
2:56 AM,3.2,-0.4,85,29.63,10.0,Calm,Calm,-,N/A,,Clear,0,2013-01-04 11:56:00
3:16 AM,3.2,-0.4,85,29.63,10.0,South,4.6,-,N/A,,Clear,170,2013-01-04 12:16:00
3:36 AM,3.2,-0.4,85,29.63,10.0,Calm,Calm,-,N/A,,Clear,0,2013-01-04 12:36:00
4:16 AM,3.2,-0.4,85,29.63,10.0,Calm,Calm,-,N/A,,Clear,0,2013-01-04 13:16:00
4:36 AM,3.2,-0.4,85,29.63,10.0,Calm,Calm,-,N/A,,Clear,0,2013-01-04 13:36:00
4:56 AM,3.2,-0.4,85,29.63,10.0,WSW,3.5,-,N/A,,Clear,240,2013-01-04 13:56:00
5:16 AM,3.2,-0.4,85,29.63,10.0,Calm,Calm,-,N/A,,Clear,0,2013-01-04 14:16:00
5:36 AM,3.2,-0.4,85,29.63,10.0,Calm,Calm,-,N/A,,Clear,0,2013-01-04 14:36:00
5:56 AM,3.2,-2.2,78,29.63,10.0,Calm,Calm,-,N/A,,Clear,0,2013-01-04 14:56:00
6:16 AM,3.2,-0.4,85,29.63,10.0,South,4.6,-,N/A,,Clear,180,2013-01-04 15:16:00
6:36 AM,3.2,1.4,92,29.63,10.0,SSW,3.5,-,N/A,,Clear,200,2013-01-04 15:36:00
6:56 AM,5.0,1.4,85,29.64,10.0,Calm,Calm,-,N/A,,Clear,0,2013-01-04 15:56:00
7:16 AM,3.2,-0.4,85,29.64,10.0,Calm,Calm,-,N/A,,Clear,0,2013-01-04 16:16:00
7:36 AM,3.2,-0.4,85,29.64,10.0,South,5.8,-,N/A,,Clear,180,2013-01-04 16:36:00
7:56 AM,6.8,3.2,85,29.63,10.0,SSW,5.8,-,N/A,,Clear,210,2013-01-04 16:56:00
8:16 AM,6.8,1.4,79,29.63,10.0,SSW,8.1,-,N/A,,Clear,210,2013-01-04 17:16:00
8:36 AM,5.0,1.4,85,29.63,10.0,SSW,6.9,-,N/A,,Clear,210,2013-01-04 17:36:00
8:56 AM,6.8,3.2,85,29.63,10.0,South,5.8,-,N/A,,Clear,190,2013-01-04 17:56:00
9:16 AM,6.8,1.4,79,29.64,10.0,South,3.5,-,N/A,,Partly Cloudy,180,2013-01-04 18:16:00
9:36 AM,6.8,3.2,85,29.64,10.0,WSW,3.5,-,N/A,,Mostly Cloudy,240,2013-01-04 18:36:00
9:56 AM,8.6,3.2,79,29.65,8.0,SSW,8.1,-,N/A,,Mostly Cloudy,200,2013-01-04 18:56:00
10:16 AM,8.6,3.2,79,29.65,10.0,SSW,6.9,-,N/A,,Overcast,210,2013-01-04 19:16:00
10:36 AM,8.6,3.2,79,29.65,10.0,South,4.6,-,N/A,,Scattered Clouds,180,2013-01-04 19:36:00
10:56 AM,10.4,8.6,92,29.65,10.0,WSW,4.6,-,N/A,,Partly Cloudy,240,2013-01-04 19:56:00
11:16 AM,10.4,6.8,85,29.66,10.0,South,5.8,-,N/A,,Mostly Cloudy,190,2013-01-04 20:16:00
11:36 AM,12.2,8.6,85,29.66,10.0,South,10.4,-,N/A,,Overcast,190,2013-01-04 20:36:00
11:56 AM,12.2,8.6,85,29.66,10.0,SSW,8.1,-,N/A,,Overcast,200,2013-01-04 20:56:00
12:16 PM,12.2,8.6,85,29.66,10.0,SW,6.9,-,N/A,,Mostly Cloudy,220,2013-01-04 21:16:00
12:36 PM,10.4,5.0,79,29.66,10.0,SSW,6.9,-,N/A,,Partly Cloudy,200,2013-01-04 21:36:00
12:56 PM,10.4,8.6,92,29.67,10.0,SSW,4.6,-,N/A,,Partly Cloudy,200,2013-01-04 21:56:00
1:16 PM,10.4,6.8,85,29.67,10.0,Calm,Calm,-,N/A,,Clear,0,2013-01-04 22:16:00
1:36 PM,10.4,6.8,85,29.67,10.0,Calm,Calm,-,N/A,,Scattered Clouds,0,2013-01-04 22:36:00
1:56 PM,8.6,6.8,92,29.67,10.0,SSW,4.6,-,N/A,,Partly Cloudy,200,2013-01-04 22:56:00
2:16 PM,8.6,3.2,79,29.67,10.0,SSW,6.9,-,N/A,,Mostly Cloudy,210,2013-01-04 23:16:00
2:36 PM,8.6,5.0,85,29.67,10.0,South,6.9,-,N/A,,Scattered Clouds,180,2013-01-04 23:36:00
2:56 PM,10.4,6.8,85,29.67,10.0,South,3.5,-,N/A,,Mostly Cloudy,180,2013-01-04 23:56:00
3:16 PM,10.4,6.8,85,29.67,10.0,South,4.6,-,N/A,,Overcast,190,2013-01-05 00:16:00
3:36 PM,12.2,8.6,85,29.68,8.0,SSW,4.6,-,N/A,,Overcast,200,2013-01-05 00:36:00
3:56 PM,12.2,8.6,85,29.68,10.0,SSE,6.9,-,N/A,,Overcast,160,2013-01-05 00:56:00
4:16 PM,12.2,10.4,92,29.68,10.0,SSW,8.1,-,N/A,,Overcast,200,2013-01-05 01:16:00
4:36 PM,12.2,8.6,85,29.68,10.0,SW,3.5,-,N/A,,Overcast,220,2013-01-05 01:36:00
4:56 PM,12.2,10.4,92,29.68,10.0,South,8.1,-,N/A,,Overcast,190,2013-01-05 01:56:00
5:16 PM,12.2,10.4,92,29.68,10.0,South,12.7,-,N/A,,Overcast,170,2013-01-05 02:16:00
5:36 PM,14.0,10.4,86,29.68,10.0,South,9.2,-,N/A,,Overcast,170,2013-01-05 02:36:00
5:56 PM,12.2,10.4,92,29.68,10.0,South,11.5,-,N/A,,Overcast,190,2013-01-05 02:56:00
6:16 PM,12.2,8.6,85,29.68,10.0,South,10.4,-,N/A,,Overcast,190,2013-01-05 03:16:00
6:36 PM,12.2,8.6,85,29.68,10.0,SSW,9.2,-,N/A,,Overcast,200,2013-01-05 03:36:00
6:56 PM,14.0,10.4,86,29.68,10.0,SSW,10.4,-,N/A,,Overcast,200,2013-01-05 03:56:00
7:16 PM,14.0,10.4,86,29.68,10.0,South,10.4,-,N/A,,Overcast,190,2013-01-05 04:16:00
7:36 PM,12.2,8.6,85,29.68,10.0,South,10.4,-,N/A,,Overcast,180,2013-01-05 04:36:00
7:56 PM,14.0,10.4,86,29.69,10.0,South,8.1,-,N/A,,Overcast,180,2013-01-05 04:56:00
8:16 PM,14.0,10.4,86,29.69,10.0,South,9.2,-,N/A,,Overcast,190,2013-01-05 05:16:00
8:36 PM,15.8,10.4,79,29.69,10.0,South,11.5,-,N/A,,Overcast,180,2013-01-05 05:36:00
8:56 PM,14.0,10.4,86,29.69,10.0,South,12.7,-,N/A,,Overcast,180,2013-01-05 05:56:00
9:16 PM,14.0,8.6,79,29.69,10.0,South,9.2,-,N/A,,Overcast,170,2013-01-05 06:16:00
9:36 PM,12.2,8.6,85,29.69,10.0,South,8.1,-,N/A,,Overcast,170,2013-01-05 06:36:00
9:56 PM,12.2,8.6,85,29.69,10.0,SSE,6.9,-,N/A,,Mostly Cloudy,160,2013-01-05 06:56:00
10:16 PM,12.2,8.6,85,29.69,10.0,South,9.2,-,N/A,,Partly Cloudy,170,2013-01-05 07:16:00
10:36 PM,12.2,8.6,85,29.69,10.0,South,11.5,-,N/A,,Clear,180,2013-01-05 07:36:00
10:56 PM,12.2,8.6,85,29.69,10.0,South,10.4,-,N/A,,Clear,180,2013-01-05 07:56:00
11:16 PM,12.2,8.6,85,29.69,10.0,South,11.5,-,N/A,,Clear,180,2013-01-05 08:16:00
11:36 PM,14.0,8.6,79,29.70,10.0,South,9.2,-,N/A,,Clear,170,2013-01-05 08:36:00
11:56 PM,14.0,8.6,79,29.70,10.0,South,11.5,-,N/A,,Clear,180,2013-01-05 08:56:00